| time (UTC) | temp F | wind direction | speed MPH | gust MPH | rain 1hr in | rain 24hr in | rain mn in | humidity % | barometer mb |
| 20260506113007 | 66 | 329 | 3.0 | 12.0 | 0.00 | 0.00 | 0.00 | 72 | 1010.2 |
| 20260506112511 | 66 | 166 | 5.0 | 14.0 | 0.00 | 0.00 | 0.00 | 72 | 1010.0 |
| 20260506112003 | 65 | 227 | 3.0 | 14.0 | 0.00 | 0.00 | 0.00 | 72 | 1010.2 |
| 20260506111513 | 65 | 194 | 1.0 | 9.0 | 0.00 | 0.00 | 0.00 | 73 | 1010.1 |
| 20260506111003 | 65 | 130 | 2.0 | 9.0 | 0.00 | 0.00 | 0.00 | 73 | 1010.1 |
| 20260506110509 | 65 | 351 | 3.0 | 11.0 | 0.00 | 0.00 | 0.00 | 73 | 1010.0 |
| 20260506110004 | 65 | 171 | 2.0 | 11.0 | 0.00 | 0.00 | 0.00 | 73 | 1009.9 |
| 20260506105507 | 65 | 171 | 3.0 | 12.0 | 0.00 | 0.00 | 0.00 | 73 | 1009.9 |
| 20260506105008 | 65 | 169 | 4.0 | 12.0 | 0.00 | 0.00 | 0.00 | 73 | 1009.8 |
| 20260506104522 | 65 | 205 | 3.0 | 9.0 | 0.00 | 0.00 | 0.00 | 74 | 1010.0 |
| 20260506104004 | 65 | 185 | 1.0 | 12.0 | 0.00 | 0.00 | 0.00 | 74 | 1010.0 |
| 20260506103507 | 65 | 147 | 2.0 | 12.0 | 0.00 | 0.00 | 0.00 | 74 | 1009.9 |
| 20260506103022 | 65 | 197 | 3.0 | 10.0 | 0.00 | 0.00 | 0.00 | 74 | 1010.0 |
| 20260506102504 | 65 | 187 | 3.0 | 10.0 | 0.00 | 0.00 | 0.00 | 74 | 1009.9 |
| 20260506102004 | 65 | 207 | 3.0 | 9.0 | 0.00 | 0.00 | 0.00 | 74 | 1009.9 |
| 20260506101510 | 64 | 174 | 4.0 | 8.0 | 0.00 | 0.00 | 0.00 | 74 | 1009.9 |
| 20260506101003 | 64 | 186 | 3.0 | 11.0 | 0.00 | 0.00 | 0.00 | 75 | 1009.9 |
| 20260506100504 | 64 | 172 | 3.0 | 11.0 | 0.00 | 0.00 | 0.00 | 75 | 1009.9 |
| 20260506100015 | 64 | 168 | 3.0 | 7.0 | 0.00 | 0.00 | 0.00 | 75 | 1009.7 |
| 20260506095508 | 64 | 168 | 2.0 | 8.0 | 0.00 | 0.00 | 0.00 | 75 | 1009.7 |
| 20260506095004 | 64 | 188 | 1.0 | 8.0 | 0.00 | 0.00 | 0.00 | 75 | 1009.8 |
| 20260506094512 | 64 | 158 | 2.0 | 9.0 | 0.00 | 0.00 | 0.00 | 75 | 1009.7 |
| 20260506094008 | 64 | 80 | 3.0 | 11.0 | 0.00 | 0.00 | 0.00 | 75 | 1009.7 |
| 20260506093507 | 64 | 179 | 2.0 | 11.0 | 0.00 | 0.00 | 0.00 | 75 | 1009.7 |
| 20260506093011 | 64 | 182 | 3.0 | 10.0 | 0.00 | 0.00 | 0.00 | 75 | 1009.7 |
| 20260506092507 | 64 | 123 | 2.0 | 8.0 | 0.00 | 0.00 | 0.00 | 75 | 1009.7 |
| 20260506092011 | 64 | 145 | 3.0 | 11.0 | 0.00 | 0.00 | 0.00 | 75 | 1009.7 |
| 20260506091526 | 64 | 175 | 3.0 | 11.0 | 0.00 | 0.00 | 0.00 | 75 | 1009.8 |
| 20260506091003 | 64 | 192 | 2.0 | 7.0 | 0.00 | 0.00 | 0.00 | 75 | 1009.8 |
| 20260506090505 | 64 | 130 | 0.0 | 4.0 | 0.00 | 0.00 | 0.00 | 74 | 1009.8 |
| 20260506090011 | 64 | 150 | 0.0 | 6.0 | 0.00 | 0.00 | 0.00 | 74 | 1009.9 |
| 20260506085504 | 64 | 155 | 1.0 | 6.0 | 0.00 | 0.00 | 0.00 | 74 | 1009.9 |
| 20260506085007 | 64 | 148 | 1.0 | 4.0 | 0.00 | 0.00 | 0.00 | 73 | 1009.9 |
| 20260506084516 | 65 | 149 | 0.0 | 3.0 | 0.00 | 0.00 | 0.00 | 73 | 1010.0 |
| 20260506084007 | 65 | 149 | 0.0 | 7.0 | 0.00 | 0.00 | 0.00 | 73 | 1010.0 |
| 20260506083508 | 65 | 152 | 1.0 | 9.0 | 0.00 | 0.00 | 0.00 | 72 | 1010.0 |
| 20260506083021 | 65 | 171 | 1.0 | 9.0 | 0.00 | 0.00 | 0.00 | 72 | 1010.0 |
| 20260506082507 | 65 | 148 | 2.0 | 10.0 | 0.00 | 0.00 | 0.00 | 72 | 1010.1 |
| 20260506082003 | 65 | 165 | 2.0 | 11.0 | 0.00 | 0.00 | 0.00 | 71 | 1010.0 |
| 20260506081516 | 65 | 148 | 4.0 | 11.0 | 0.00 | 0.00 | 0.00 | 71 | 1010.0 |
| 20260506081007 | 66 | 173 | 3.0 | 10.0 | 0.00 | 0.00 | 0.00 | 71 | 1009.9 |
| 20260506080510 | 66 | 154 | 4.0 | 10.0 | 0.00 | 0.00 | 0.00 | 71 | 1010.1 |
| 20260506073509 | 66 | 154 | 1.0 | 10.0 | 0.00 | 0.00 | 0.00 | 69 | 1010.2 |
| 20260506073018 | 66 | 187 | 1.0 | 10.0 | 0.00 | 0.00 | 0.00 | 69 | 1010.0 |
| 20260506072508 | 66 | 180 | 2.0 | 9.0 | 0.00 | 0.00 | 0.00 | 69 | 1010.0 |
| 20260506072008 | 66 | 194 | 1.0 | 7.0 | 0.00 | 0.00 | 0.00 | 68 | 1010.0 |
| 20260506071529 | 66 | 160 | 3.0 | 7.0 | 0.00 | 0.00 | 0.00 | 68 | 1010.0 |
| 20260506071012 | 66 | 130 | 2.0 | 8.0 | 0.00 | 0.00 | 0.00 | 68 | 1010.1 |
| 20260506070504 | 66 | 155 | 2.0 | 8.0 | 0.00 | 0.00 | 0.00 | 67 | 1010.1 |
| 20260506062509 | 67 | 192 | 2.0 | 7.0 | 0.00 | 0.00 | 0.00 | 65 | 1010.2 |
| 20260506062009 | 67 | 158 | 1.0 | 5.0 | 0.00 | 0.00 | 0.00 | 65 | 1010.2 |
| 20260506061517 | 67 | 196 | 2.0 | 6.0 | 0.00 | 0.00 | 0.00 | 64 | 1010.2 |
| 20260506061010 | 67 | 154 | 1.0 | 9.0 | 0.00 | 0.00 | 0.00 | 64 | 1010.2 |
| 20260506060510 | 67 | 206 | 3.0 | 9.0 | 0.00 | 0.00 | 0.00 | 64 | 1010.2 |
| 20260506051005 | 68 | 175 | 2.0 | 10.0 | 0.00 | 0.00 | 0.00 | 60 | 1010.8 |
| 20260506050502 | 68 | 156 | 3.0 | 13.0 | 0.00 | 0.00 | 0.00 | 60 | 1010.8 |
| 20260506045002 | 69 | 156 | 4.0 | 9.0 | 0.00 | 0.00 | 0.00 | 59 | 1010.8 |
| 20260506044507 | 69 | 211 | 2.0 | 10.0 | 0.00 | 0.00 | 0.00 | 59 | 1010.8 |
| 20260506044002 | 69 | 187 | 4.0 | 10.0 | 0.00 | 0.00 | 0.00 | 59 | 1010.7 |
| 20260506043503 | 69 | 211 | 4.0 | 10.0 | 0.00 | 0.00 | 0.00 | 59 | 1010.8 |
| 20260506043012 | 69 | 184 | 3.0 | 8.0 | 0.00 | 0.00 | 0.00 | 59 | 1010.8 |
| 20260506042509 | 69 | 211 | 1.0 | 8.0 | 0.00 | 0.00 | 0.00 | 59 | 1010.8 |
| 20260506042006 | 69 | 144 | 1.0 | 8.0 | 0.00 | 0.00 | 0.00 | 58 | 1010.7 |
| 20260506041514 | 69 | 192 | 2.0 | 7.0 | 0.00 | 0.00 | 0.00 | 58 | 1010.6 |
| 20260506041012 | 69 | 150 | 2.0 | 8.0 | 0.00 | 0.00 | 0.00 | 58 | 1010.6 |
| 20260506040503 | 69 | 203 | 3.0 | 9.0 | 0.00 | 0.00 | 0.00 | 58 | 1010.6 |
| 20260506040023 | 69 | 286 | 0.0 | 9.0 | 0.00 | 0.00 | 0.00 | 58 | 1010.6 |
| 20260506035503 | 69 | 331 | 1.0 | 10.0 | 0.00 | 0.00 | 0.00 | 58 | 1010.6 |
| 20260506035002 | 69 | 176 | 2.0 | 10.0 | 0.00 | 0.00 | 0.00 | 57 | 1010.6 |
| 20260506034507 | 69 | 194 | 1.0 | 9.0 | 0.00 | 0.00 | 0.00 | 57 | 1010.6 |
| 20260506034001 | 70 | 159 | 2.0 | 9.0 | 0.00 | 0.00 | 0.00 | 56 | 1010.6 |
| 20260506033506 | 70 | 190 | 3.0 | 12.0 | 0.00 | 0.00 | 0.00 | 56 | 1010.5 |
| 20260506033005 | 70 | 147 | 3.0 | 12.0 | 0.00 | 0.00 | 0.00 | 56 | 1010.6 |
| 20260506032503 | 70 | 178 | 3.0 | 11.0 | 0.00 | 0.00 | 0.00 | 56 | 1010.5 |
| 20260506032007 | 70 | 170 | 2.0 | 12.0 | 0.00 | 0.00 | 0.00 | 55 | 1010.5 |
| 20260506031530 | 70 | 157 | 1.0 | 12.0 | 0.00 | 0.00 | 0.00 | 55 | 1010.5 |
| 20260506031003 | 71 | 200 | 5.0 | 15.0 | 0.00 | 0.00 | 0.00 | 55 | 1010.4 |
| 20260506030506 | 71 | 179 | 1.0 | 15.0 | 0.00 | 0.00 | 0.00 | 54 | 1010.6 |
| 20260506030020 | 71 | 204 | 3.0 | 9.0 | 0.00 | 0.00 | 0.00 | 53 | 1010.5 |
| 20260506025507 | 71 | 201 | 3.0 | 10.0 | 0.00 | 0.00 | 0.00 | 53 | 1010.4 |
| 20260506025004 | 72 | 137 | 3.0 | 10.0 | 0.00 | 0.00 | 0.00 | 52 | 1010.4 |
| 20260506024520 | 72 | 163 | 0.0 | 9.0 | 0.00 | 0.00 | 0.00 | 51 | 1010.4 |
| 20260506024003 | 72 | 131 | 3.0 | 9.0 | 0.00 | 0.00 | 0.00 | 50 | 1010.4 |
| 20260506023504 | 72 | 161 | 3.0 | 11.0 | 0.00 | 0.00 | 0.00 | 49 | 1010.4 |
| 20260506023007 | 73 | 134 | 3.0 | 11.0 | 0.00 | 0.00 | 0.00 | 48 | 1010.4 |
| 20260506022503 | 73 | 197 | 3.0 | 13.0 | 0.00 | 0.00 | 0.00 | 47 | 1010.4 |
| 20260506022007 | 73 | 181 | 4.0 | 12.0 | 0.00 | 0.00 | 0.00 | 47 | 1010.5 |
| 20260506021510 | 73 | 156 | 2.0 | 7.0 | 0.00 | 0.00 | 0.00 | 46 | 1010.4 |
| 20260506021007 | 74 | 186 | 2.0 | 13.0 | 0.00 | 0.00 | 0.00 | 46 | 1010.4 |
| 20260506020511 | 74 | 148 | 4.0 | 14.0 | 0.00 | 0.00 | 0.00 | 45 | 1010.3 |
| 20260506020005 | 74 | 173 | 5.0 | 14.0 | 0.00 | 0.00 | 0.00 | 45 | 1010.4 |
| 20260506015506 | 74 | 174 | 4.0 | 11.0 | 0.00 | 0.00 | 0.00 | 44 | 1010.3 |
| 20260506015007 | 74 | 159 | 3.0 | 12.0 | 0.00 | 0.00 | 0.00 | 43 | 1010.3 |
| 20260506014522 | 75 | 174 | 2.0 | 15.0 | 0.00 | 0.00 | 0.00 | 43 | 1010.3 |
| 20260506014003 | 75 | 144 | 1.0 | 15.0 | 0.00 | 0.00 | 0.00 | 42 | 1010.1 |
| 20260506013511 | 75 | 162 | 4.0 | 13.0 | 0.00 | 0.00 | 0.00 | 42 | 1010.1 |
| 20260506013004 | 75 | 175 | 3.0 | 11.0 | 0.00 | 0.00 | 0.00 | 41 | 1009.9 |
| 20260506012504 | 75 | 229 | 1.0 | 11.0 | 0.00 | 0.00 | 0.00 | 41 | 1010.0 |
| 20260506012006 | 76 | 173 | 3.0 | 12.0 | 0.00 | 0.00 | 0.00 | 41 | 1009.9 |
| 20260506011510 | 76 | 181 | 4.0 | 16.0 | 0.00 | 0.00 | 0.00 | 41 | 1009.8 |
| 20260506011007 | 76 | 143 | 2.0 | 16.0 | 0.00 | 0.00 | 0.00 | 40 | 1009.8 |
| 20260506010503 | 76 | 155 | 5.0 | 15.0 | 0.00 | 0.00 | 0.00 | 40 | 1009.8 |
| 20260506010018 | 76 | 186 | 3.0 | 9.0 | 0.00 | 0.00 | 0.00 | 40 | 1009.7 |
| 20260506005506 | 76 | 210 | 3.0 | 8.0 | 0.00 | 0.00 | 0.00 | 39 | 1009.7 |
| 20260506005009 | 77 | 202 | 2.0 | 12.0 | 0.00 | 0.00 | 0.00 | 38 | 1009.7 |
| 20260506004521 | 77 | 203 | 5.0 | 13.0 | 0.00 | 0.00 | 0.00 | 38 | 1009.7 |
| 20260506004011 | 77 | 173 | 3.0 | 13.0 | 0.00 | 0.00 | 0.00 | 37 | 1009.5 |
| 20260506003511 | 77 | 179 | 4.0 | 13.0 | 0.00 | 0.00 | 0.00 | 37 | 1009.5 |
| 20260506003013 | 77 | 144 | 4.0 | 15.0 | 0.00 | 0.00 | 0.00 | 36 | 1009.4 |
| 20260506002507 | 77 | 194 | 2.0 | 15.0 | 0.00 | 0.00 | 0.00 | 35 | 1009.3 |
| 20260506002013 | 77 | 160 | 5.0 | 11.0 | 0.00 | 0.00 | 0.00 | 35 | 1009.1 |
| 20260506001508 | 77 | 180 | 2.0 | 9.0 | 0.00 | 0.00 | 0.00 | 35 | 1009.1 |
| 20260506001004 | 78 | 208 | 1.0 | 12.0 | 0.00 | 0.00 | 0.00 | 34 | 1009.1 |
| 20260506000504 | 78 | 154 | 3.0 | 12.0 | 0.00 | 0.00 | 0.00 | 34 | 1009.0 |
| 20260506000014 | 78 | 186 | 4.0 | 15.0 | 0.00 | 0.00 | 0.00 | 34 | 1009.0 |
| 20260505235504 | 78 | 124 | 3.0 | 15.0 | 0.00 | 0.00 | 0.00 | 33 | 1009.0 |
| 20260505235005 | 78 | 178 | 2.0 | 10.0 | 0.00 | 0.00 | 0.00 | 33 | 1009.1 |
| 20260505234520 | 78 | 208 | 2.0 | 8.0 | 0.00 | 0.00 | 0.00 | 33 | 1009.0 |
| 20260505234007 | 78 | 182 | 0.0 | 10.0 | 0.00 | 0.00 | 0.00 | 33 | 1009.0 |
| 20260505233508 | 78 | 203 | 4.0 | 13.0 | 0.00 | 0.00 | 0.00 | 32 | 1009.0 |
| 20260505233019 | 78 | 185 | 0.0 | 13.0 | 0.00 | 0.00 | 0.00 | 32 | 1009.0 |
| 20260505232509 | 79 | 194 | 4.0 | 12.0 | 0.00 | 0.00 | 0.00 | 32 | 1009.0 |
| 20260505232003 | 79 | 180 | 3.0 | 9.0 | 0.00 | 0.00 | 0.00 | 31 | 1008.9 |
| 20260505231524 | 79 | 169 | 2.0 | 11.0 | 0.00 | 0.00 | 0.00 | 32 | 1008.8 |
| 20260505231009 | 79 | 323 | 2.0 | 11.0 | 0.00 | 0.00 | 0.00 | 31 | 1008.7 |
| 20260505230511 | 79 | 184 | 3.0 | 9.0 | 0.00 | 0.00 | 0.00 | 30 | 1008.6 |
| 20260505230021 | 79 | 161 | 2.0 | 19.0 | 0.00 | 0.00 | 0.00 | 30 | 1008.6 |
| 20260505225507 | 80 | 219 | 5.0 | 19.0 | 0.00 | 0.00 | 0.00 | 30 | 1008.5 |
| 20260505225009 | 80 | 171 | 7.0 | 19.0 | 0.00 | 0.00 | 0.00 | 29 | 1008.8 |
| 20260505224515 | 80 | 184 | 3.0 | 14.0 | 0.00 | 0.00 | 0.00 | 29 | 1008.7 |
| 20260505224007 | 80 | 190 | 4.0 | 16.0 | 0.00 | 0.00 | 0.00 | 29 | 1008.7 |
| 20260505223514 | 81 | 178 | 6.0 | 16.0 | 0.00 | 0.00 | 0.00 | 29 | 1008.7 |
| 20260505223021 | 81 | 205 | 1.0 | 10.0 | 0.00 | 0.00 | 0.00 | 29 | 1008.5 |
| 20260505222506 | 81 | 207 | 4.0 | 16.0 | 0.00 | 0.00 | 0.00 | 29 | 1008.4 |
| 20260505222013 | 81 | 183 | 5.0 | 16.0 | 0.00 | 0.00 | 0.00 | 28 | 1008.6 |
| 20260505221524 | 81 | 300 | 4.0 | 15.0 | 0.00 | 0.00 | 0.00 | 28 | 1008.4 |
| 20260505221006 | 82 | 188 | 6.0 | 13.0 | 0.00 | 0.00 | 0.00 | 28 | 1008.6 |
| 20260505220507 | 82 | 178 | 4.0 | 12.0 | 0.00 | 0.00 | 0.00 | 30 | 1008.2 |
| 20260505220023 | 81 | 188 | 3.0 | 14.0 | 0.00 | 0.00 | 0.00 | 30 | 1008.3 |
| 20260505215510 | 81 | 166 | 5.0 | 20.0 | 0.00 | 0.00 | 0.00 | 30 | 1008.4 |
| 20260505215006 | 81 | 162 | 7.0 | 20.0 | 0.00 | 0.00 | 0.00 | 30 | 1008.3 |
| 20260505214513 | 81 | 178 | 6.0 | 15.0 | 0.00 | 0.00 | 0.00 | 29 | 1008.3 |
| 20260505214008 | 82 | 209 | 6.0 | 15.0 | 0.00 | 0.00 | 0.00 | 29 | 1008.2 |
| 20260505213506 | 82 | 192 | 4.0 | 13.0 | 0.00 | 0.00 | 0.00 | 29 | 1008.0 |
| 20260505213018 | 82 | 183 | 5.0 | 18.0 | 0.00 | 0.00 | 0.00 | 29 | 1007.9 |
| 20260505212507 | 82 | 232 | 6.0 | 19.0 | 0.00 | 0.00 | 0.00 | 30 | 1008.0 |
| 20260505212011 | 83 | 190 | 7.0 | 19.0 | 0.00 | 0.00 | 0.00 | 30 | 1007.8 |
| 20260505211514 | 83 | 187 | 2.0 | 13.0 | 0.00 | 0.00 | 0.00 | 32 | 1007.9 |
| 20260505211007 | 82 | 351 | 4.0 | 16.0 | 0.00 | 0.00 | 0.00 | 31 | 1007.9 |
| 20260505210511 | 83 | 188 | 4.0 | 16.0 | 0.00 | 0.00 | 0.00 | 30 | 1007.9 |
| 20260505210029 | 83 | 135 | 2.0 | 19.0 | 0.00 | 0.00 | 0.00 | 31 | 1007.9 |
| 20260505205512 | 83 | 189 | 2.0 | 19.0 | 0.00 | 0.00 | 0.00 | 29 | 1007.8 |
| 20260505205014 | 83 | 215 | 5.0 | 17.0 | 0.00 | 0.00 | 0.00 | 29 | 1008.2 |
| 20260505204509 | 83 | 163 | 7.0 | 17.0 | 0.00 | 0.00 | 0.00 | 28 | 1008.0 |
| 20260505204003 | 83 | 199 | 4.0 | 18.0 | 0.00 | 0.00 | 0.00 | 27 | 1008.1 |
| 20260505203502 | 83 | 213 | 5.0 | 18.0 | 0.00 | 0.00 | 0.00 | 30 | 1008.1 |
| 20260505203005 | 83 | 145 | 4.0 | 22.0 | 0.00 | 0.00 | 0.00 | 30 | 1008.1 |
| 20260505202508 | 83 | 170 | 8.0 | 23.0 | 0.00 | 0.00 | 0.00 | 29 | 1007.9 |
| 20260505202011 | 83 | 315 | 4.0 | 23.0 | 0.00 | 0.00 | 0.00 | 31 | 1008.0 |
| 20260505201504 | 83 | 125 | 6.0 | 23.0 | 0.00 | 0.00 | 0.00 | 29 | 1008.1 |
| 20260505201005 | 83 | 316 | 6.0 | 22.0 | 0.00 | 0.00 | 0.00 | 28 | 1008.2 |
| 20260505200504 | 83 | 52 | 6.0 | 17.0 | 0.00 | 0.00 | 0.00 | 29 | 1008.1 |
| 20260505200002 | 83 | 53 | 5.0 | 26.0 | 0.00 | 0.00 | 0.00 | 31 | 1008.0 |
| 20260505195501 | 83 | 153 | 2.0 | 26.0 | 0.00 | 0.00 | 0.00 | 32 | 1008.0 |
| 20260505195002 | 83 | 186 | 7.0 | 22.0 | 0.00 | 0.00 | 0.00 | 31 | 1008.0 |
| 20260505194513 | 83 | 209 | 5.0 | 22.0 | 0.00 | 0.00 | 0.00 | 32 | 1007.9 |
| 20260505194006 | 83 | 175 | 6.0 | 22.0 | 0.00 | 0.00 | 0.00 | 32 | 1008.1 |
| 20260505193503 | 83 | 191 | 7.0 | 23.0 | 0.00 | 0.00 | 0.00 | 31 | 1008.3 |
| 20260505193013 | 83 | 180 | 9.0 | 23.0 | 0.00 | 0.00 | 0.00 | 31 | 1008.1 |
| 20260505192506 | 83 | 163 | 5.0 | 16.0 | 0.00 | 0.00 | 0.00 | 29 | 1008.3 |
| 20260505192005 | 83 | 206 | 5.0 | 23.0 | 0.00 | 0.00 | 0.00 | 31 | 1008.3 |
| 20260505191511 | 83 | 290 | 7.0 | 23.0 | 0.00 | 0.00 | 0.00 | 30 | 1008.4 |
| 20260505191012 | 83 | 200 | 8.0 | 19.0 | 0.00 | 0.00 | 0.00 | 31 | 1008.6 |
| 20260505190503 | 82 | 5 | 6.0 | 21.0 | 0.00 | 0.00 | 0.00 | 34 | 1008.6 |
| 20260505190006 | 82 | 194 | 10.0 | 21.0 | 0.00 | 0.00 | 0.00 | 32 | 1008.6 |
| 20260505185503 | 83 | 213 | 6.0 | 16.0 | 0.00 | 0.00 | 0.00 | 31 | 1008.7 |
| 20260505185005 | 83 | 148 | 9.0 | 21.0 | 0.00 | 0.00 | 0.00 | 31 | 1008.9 |
| 20260505184506 | 83 | 171 | 5.0 | 21.0 | 0.00 | 0.00 | 0.00 | 33 | 1008.9 |
| 20260505184007 | 82 | 214 | 8.0 | 20.0 | 0.00 | 0.00 | 0.00 | 35 | 1009.2 |
| 20260505183506 | 83 | 135 | 8.0 | 19.0 | 0.00 | 0.00 | 0.00 | 33 | 1009.0 |
| 20260505183005 | 82 | 196 | 5.0 | 16.0 | 0.00 | 0.00 | 0.00 | 34 | 1009.0 |
| 20260505182503 | 82 | 188 | 4.0 | 22.0 | 0.00 | 0.00 | 0.00 | 34 | 1009.0 |
| 20260505182009 | 82 | 169 | 9.0 | 22.0 | 0.00 | 0.00 | 0.00 | 34 | 1009.0 |
| 20260505181515 | 82 | 202 | 5.0 | 18.0 | 0.00 | 0.00 | 0.00 | 34 | 1008.9 |
| 20260505181004 | 82 | 164 | 9.0 | 20.0 | 0.00 | 0.00 | 0.00 | 33 | 1009.1 |
| 20260505180508 | 82 | 189 | 10.0 | 23.0 | 0.00 | 0.00 | 0.00 | 33 | 1009.3 |
| 20260505180021 | 82 | 188 | 6.0 | 23.0 | 0.00 | 0.00 | 0.00 | 34 | 1009.2 |
| 20260505175504 | 82 | 204 | 3.0 | 15.0 | 0.00 | 0.00 | 0.00 | 37 | 1009.2 |
| 20260505175004 | 81 | 17 | 6.0 | 15.0 | 0.00 | 0.00 | 0.00 | 38 | 1009.4 |
| 20260505174508 | 81 | 210 | 5.0 | 15.0 | 0.00 | 0.00 | 0.00 | 37 | 1009.4 |
| 20260505174004 | 81 | 192 | 6.0 | 16.0 | 0.00 | 0.00 | 0.00 | 37 | 1009.5 |
| 20260505173505 | 81 | 160 | 6.0 | 17.0 | 0.00 | 0.00 | 0.00 | 38 | 1009.5 |
| 20260505173009 | 81 | 157 | 6.0 | 17.0 | 0.00 | 0.00 | 0.00 | 39 | 1009.6 |
| 20260505172506 | 81 | 168 | 3.0 | 12.0 | 0.00 | 0.00 | 0.00 | 40 | 1009.6 |
| 20260505172012 | 81 | 63 | 5.0 | 13.0 | 0.00 | 0.00 | 0.00 | 41 | 1009.7 |
| 20260505171515 | 81 | 290 | 3.0 | 13.0 | 0.00 | 0.00 | 0.00 | 40 | 1009.7 |
| 20260505171007 | 80 | 150 | 3.0 | 10.0 | 0.00 | 0.00 | 0.00 | 43 | 1010.0 |
| 20260505170505 | 80 | 155 | 3.0 | 11.0 | 0.00 | 0.00 | 0.00 | 41 | 1009.9 |
| 20260505170013 | 80 | 202 | 4.0 | 13.0 | 0.00 | 0.00 | 0.00 | 40 | 1010.0 |
| 20260505165504 | 80 | 180 | 3.0 | 13.0 | 0.00 | 0.00 | 0.00 | 42 | 1010.0 |
| 20260505165013 | 79 | 145 | 3.0 | 10.0 | 0.00 | 0.00 | 0.00 | 44 | 1010.0 |
| 20260505164525 | 79 | 117 | 2.0 | 10.0 | 0.00 | 0.00 | 0.00 | 43 | 1010.0 |
| 20260505164004 | 79 | 213 | 5.0 | 10.0 | 0.00 | 0.00 | 0.00 | 43 | 1010.2 |
| 20260505163504 | 79 | 288 | 3.0 | 12.0 | 0.00 | 0.00 | 0.00 | 45 | 1010.3 |
| 20260505163010 | 79 | 187 | 3.0 | 12.0 | 0.00 | 0.00 | 0.00 | 43 | 1010.2 |
| 20260505162504 | 78 | 155 | 2.0 | 9.0 | 0.00 | 0.00 | 0.00 | 44 | 1010.3 |
| 20260505162006 | 78 | 167 | 3.0 | 7.0 | 0.00 | 0.00 | 0.00 | 43 | 1010.4 |
| 20260505161510 | 78 | 157 | 2.0 | 12.0 | 0.00 | 0.00 | 0.00 | 44 | 1010.4 |
| 20260505161007 | 78 | 232 | 5.0 | 12.0 | 0.00 | 0.00 | 0.00 | 44 | 1010.6 |
| 20260505160502 | 77 | 144 | 3.0 | 9.0 | 0.00 | 0.00 | 0.00 | 45 | 1010.6 |
| 20260505153012 | 76 | 139 | 4.0 | 11.0 | 0.00 | 0.00 | 0.00 | 46 | 1011.0 |
| 20260505152508 | 75 | 120 | 4.0 | 11.0 | 0.00 | 0.00 | 0.00 | 48 | 1011.0 |
| 20260505152008 | 75 | 173 | 1.0 | 7.0 | 0.00 | 0.00 | 0.00 | 47 | 1011.1 |
| 20260505151507 | 75 | 315 | 1.0 | 10.0 | 0.00 | 0.00 | 0.00 | 49 | 1011.0 |
| 20260505151003 | 74 | 149 | 1.0 | 10.0 | 0.00 | 0.00 | 0.00 | 48 | 1010.9 |
| 20260505150504 | 74 | 154 | 2.0 | 10.0 | 0.00 | 0.00 | 0.00 | 49 | 1011.0 |
| 20260505140506 | 70 | 202 | 3.0 | 10.0 | 0.00 | 0.00 | 0.00 | 55 | 1011.5 |
| 20260505125007 | 64 | 195 | 3.0 | 9.0 | 0.00 | 0.00 | 0.00 | 63 | 1011.1 |
| 20260505124515 | 64 | 166 | 3.0 | 8.0 | 0.00 | 0.00 | 0.00 | 63 | 1011.0 |
| 20260505124009 | 63 | 160 | 1.0 | 8.0 | 0.00 | 0.00 | 0.00 | 66 | 1011.0 |
| 20260505123508 | 63 | 157 | 4.0 | 8.0 | 0.00 | 0.00 | 0.00 | 65 | 1011.0 |
| 20260505123016 | 62 | 206 | 1.0 | 9.0 | 0.00 | 0.00 | 0.00 | 68 | 1011.0 |
| 20260505122508 | 62 | 327 | 3.0 | 9.0 | 0.00 | 0.00 | 0.00 | 68 | 1011.0 |
| 20260505122016 | 61 | 209 | 3.0 | 10.0 | 0.00 | 0.00 | 0.00 | 70 | 1011.1 |
| 20260505121515 | 61 | 196 | 2.0 | 10.0 | 0.00 | 0.00 | 0.00 | 72 | 1011.2 |
| 20260505121010 | 60 | 199 | 1.0 | 8.0 | 0.00 | 0.00 | 0.00 | 73 | 1011.4 |
| 20260505120513 | 60 | 193 | 2.0 | 7.0 | 0.00 | 0.00 | 0.00 | 73 | 1011.4 |
| 20260505120026 | 59 | 184 | 2.0 | 6.0 | 0.00 | 0.00 | 0.00 | 74 | 1011.4 |
| 20260505115507 | 59 | 203 | 1.0 | 6.0 | 0.00 | 0.00 | 0.00 | 75 | 1011.3 |
| 20260505115011 | 58 | 172 | 0.0 | 6.0 | 0.00 | 0.00 | 0.00 | 76 | 1011.3 |
| 20260505114508 | 58 | 171 | 1.0 | 6.0 | 0.00 | 0.00 | 0.00 | 76 | 1011.2 |
| 20260505114008 | 58 | 146 | 0.0 | 6.0 | 0.00 | 0.00 | 0.00 | 75 | 1011.3 |
| 20260505113502 | 58 | 151 | 1.0 | 5.0 | 0.00 | 0.00 | 0.00 | 76 | 1011.2 |